| time (UTC) | temp F | wind direction | speed MPH | gust MPH | rain 1hr in | rain 24hr in | rain mn in | humidity % | barometer mb |
| 20260507052016 | 52 | 0.0 | 2.0 | 0.00 | 0.28 | 0.00 | 87 | 1008.8 | |
| 20260507051517 | 52 | 263 | 0.0 | 0.0 | 0.00 | 0.28 | 0.00 | 87 | 1008.8 |
| 20260507051016 | 52 | 270 | 1.0 | 3.0 | 0.00 | 0.28 | 0.00 | 86 | 1008.9 |
| 20260507050516 | 52 | 270 | 1.0 | 3.0 | 0.00 | 0.28 | 0.00 | 86 | 1008.9 |
| 20260507050016 | 52 | 0.0 | 1.0 | 0.00 | 0.28 | 0.00 | 87 | 1009.0 | |
| 20260507045516 | 52 | 0.0 | 1.0 | 0.00 | 0.28 | 0.00 | 86 | 1009.1 | |
| 20260507045016 | 52 | 270 | 1.0 | 4.0 | 0.00 | 0.28 | 0.00 | 86 | 1009.1 |
| 20260507044516 | 52 | 0.0 | 4.0 | 0.00 | 0.28 | 0.00 | 87 | 1009.2 | |
| 20260507044016 | 52 | 0.0 | 2.0 | 0.00 | 0.28 | 0.00 | 87 | 1009.4 | |
| 20260507043516 | 52 | 248 | 1.0 | 3.0 | 0.00 | 0.28 | 0.00 | 87 | 1009.3 |
| 20260507043016 | 52 | 270 | 1.0 | 3.0 | 0.00 | 0.28 | 0.00 | 87 | 1009.3 |
| 20260507042516 | 52 | 270 | 1.0 | 4.0 | 0.00 | 0.28 | 0.00 | 87 | 1009.2 |
| 20260507042016 | 52 | 270 | 1.0 | 3.0 | 0.00 | 0.28 | 0.00 | 87 | 1009.2 |
| 20260507041516 | 52 | 203 | 1.0 | 4.0 | 0.00 | 0.28 | 0.00 | 87 | 1009.1 |
| 20260507041016 | 52 | 0.0 | 1.0 | 0.00 | 0.28 | 0.00 | 87 | 1009.1 | |
| 20260507040516 | 52 | 0.0 | 1.0 | 0.00 | 0.28 | 0.00 | 87 | 1009.0 | |
| 20260507040016 | 52 | 0.0 | 2.0 | 0.00 | 0.28 | 0.28 | 87 | 1009.2 | |
| 20260507035515 | 52 | 270 | 1.0 | 5.0 | 0.00 | 0.28 | 0.28 | 86 | 1008.9 |
| 20260507035015 | 52 | 270 | 1.0 | 5.0 | 0.00 | 0.28 | 0.28 | 87 | 1009.2 |
| 20260507034515 | 52 | 293 | 2.0 | 4.0 | 0.00 | 0.28 | 0.28 | 87 | 1009.2 |
| 20260507034015 | 52 | 315 | 1.0 | 3.0 | 0.00 | 0.28 | 0.28 | 87 | 1008.8 |
| 20260507033515 | 52 | 315 | 1.0 | 4.0 | 0.00 | 0.28 | 0.28 | 86 | 1008.7 |
| 20260507033015 | 52 | 293 | 1.0 | 3.0 | 0.00 | 0.28 | 0.28 | 87 | 1008.8 |
| 20260507032515 | 53 | 248 | 1.0 | 4.0 | 0.00 | 0.28 | 0.28 | 87 | 1009.0 |
| 20260507032015 | 53 | 0.0 | 3.0 | 0.00 | 0.28 | 0.28 | 87 | 1008.8 | |
| 20260507031515 | 53 | 0.0 | 3.0 | 0.00 | 0.28 | 0.28 | 87 | 1008.9 | |
| 20260507031015 | 53 | 158 | 1.0 | 3.0 | 0.00 | 0.28 | 0.28 | 87 | 1009.0 |
| 20260507030515 | 53 | 203 | 1.0 | 4.0 | 0.00 | 0.28 | 0.28 | 87 | 1009.1 |
| 20260507030015 | 53 | 225 | 2.0 | 6.0 | 0.00 | 0.28 | 0.28 | 87 | 1009.1 |
| 20260507025515 | 53 | 225 | 2.0 | 5.0 | 0.00 | 0.28 | 0.28 | 87 | 1009.1 |
| 20260507025020 | 53 | 248 | 2.0 | 5.0 | 0.00 | 0.28 | 0.28 | 87 | 1009.0 |
| 20260507024515 | 53 | 248 | 3.0 | 7.0 | 0.00 | 0.28 | 0.28 | 87 | 1009.1 |
| 20260507024015 | 53 | 270 | 2.0 | 7.0 | 0.00 | 0.28 | 0.28 | 87 | 1009.1 |
| 20260507023515 | 53 | 248 | 2.0 | 5.0 | 0.00 | 0.28 | 0.28 | 87 | 1009.0 |
| 20260507023015 | 53 | 248 | 3.0 | 7.0 | 0.00 | 0.28 | 0.28 | 87 | 1009.3 |
| 20260507022515 | 53 | 248 | 3.0 | 7.0 | 0.00 | 0.28 | 0.28 | 87 | 1009.4 |
| 20260507022015 | 54 | 248 | 3.0 | 9.0 | 0.00 | 0.28 | 0.28 | 87 | 1009.4 |
| 20260507021515 | 54 | 225 | 3.0 | 7.0 | 0.00 | 0.28 | 0.28 | 87 | 1009.4 |
| 20260507021015 | 54 | 248 | 3.0 | 9.0 | 0.00 | 0.28 | 0.28 | 87 | 1009.3 |
| 20260507020515 | 54 | 293 | 1.0 | 4.0 | 0.00 | 0.28 | 0.28 | 87 | 1009.2 |
| 20260507020015 | 54 | 293 | 2.0 | 4.0 | 0.00 | 0.28 | 0.28 | 87 | 1009.1 |
| 20260507015515 | 54 | 293 | 2.0 | 7.0 | 0.00 | 0.28 | 0.28 | 87 | 1009.0 |
| 20260507015015 | 54 | 248 | 3.0 | 8.0 | 0.00 | 0.28 | 0.28 | 87 | 1009.1 |
| 20260507014515 | 54 | 270 | 2.0 | 6.0 | 0.00 | 0.28 | 0.28 | 87 | 1009.2 |
| 20260507014015 | 55 | 270 | 3.0 | 8.0 | 0.00 | 0.28 | 0.28 | 88 | 1009.1 |
| 20260507013515 | 55 | 248 | 3.0 | 7.0 | 0.00 | 0.28 | 0.28 | 88 | 1009.1 |
| 20260507013015 | 55 | 270 | 2.0 | 6.0 | 0.00 | 0.28 | 0.28 | 87 | 1008.8 |
| 20260507012515 | 55 | 270 | 2.0 | 3.0 | 0.00 | 0.28 | 0.28 | 88 | 1008.9 |
| 20260507012015 | 56 | 270 | 2.0 | 7.0 | 0.00 | 0.28 | 0.28 | 88 | 1008.8 |
| 20260507011515 | 56 | 315 | 3.0 | 9.0 | 0.00 | 0.28 | 0.28 | 88 | 1008.6 |
| 20260507011015 | 56 | 270 | 3.0 | 9.0 | 0.00 | 0.28 | 0.28 | 89 | 1008.7 |
| 20260507010515 | 57 | 270 | 3.0 | 7.0 | 0.00 | 0.28 | 0.28 | 90 | 1008.5 |
| 20260507010015 | 57 | 270 | 1.0 | 4.0 | 0.00 | 0.28 | 0.28 | 92 | 1008.4 |
| 20260507005515 | 57 | 270 | 3.0 | 8.0 | 0.00 | 0.28 | 0.28 | 92 | 1008.1 |
| 20260507005015 | 58 | 270 | 2.0 | 8.0 | 0.01 | 0.28 | 0.28 | 92 | 1007.9 |
| 20260507004515 | 58 | 270 | 3.0 | 8.0 | 0.01 | 0.28 | 0.28 | 93 | 1007.7 |
| 20260507004015 | 58 | 270 | 2.0 | 5.0 | 0.02 | 0.28 | 0.28 | 93 | 1007.7 |
| 20260507003515 | 59 | 293 | 2.0 | 6.0 | 0.02 | 0.28 | 0.28 | 93 | 1007.4 |
| 20260507003015 | 59 | 293 | 2.0 | 5.0 | 0.02 | 0.28 | 0.28 | 93 | 1007.4 |
| 20260507002515 | 59 | 270 | 1.0 | 5.0 | 0.02 | 0.28 | 0.28 | 93 | 1007.4 |
| 20260507002015 | 59 | 270 | 1.0 | 3.0 | 0.02 | 0.28 | 0.28 | 94 | 1007.5 |
| 20260507001515 | 60 | 270 | 1.0 | 3.0 | 0.02 | 0.28 | 0.28 | 93 | 1007.4 |
| 20260507001015 | 60 | 270 | 2.0 | 6.0 | 0.02 | 0.28 | 0.28 | 93 | 1007.3 |
| 20260507000517 | 60 | 0.0 | 2.0 | 0.02 | 0.28 | 0.28 | 94 | 1007.1 | |
| 20260507000017 | 61 | 248 | 1.0 | 3.0 | 0.02 | 0.28 | 0.28 | 94 | 1007.1 |
| 20260506235517 | 61 | 248 | 1.0 | 2.0 | 0.02 | 0.28 | 0.28 | 94 | 1007.1 |
| 20260506235017 | 61 | 225 | 1.0 | 3.0 | 0.01 | 0.27 | 0.27 | 94 | 1006.9 |
| 20260506234517 | 61 | 225 | 1.0 | 4.0 | 0.01 | 0.27 | 0.27 | 95 | 1006.8 |
| 20260506234017 | 61 | 225 | 3.0 | 7.0 | 0.00 | 0.26 | 0.26 | 94 | 1006.7 |
| 20260506233517 | 61 | 203 | 2.0 | 5.0 | 0.00 | 0.26 | 0.26 | 94 | 1006.3 |
| 20260506233017 | 62 | 203 | 3.0 | 9.0 | 0.00 | 0.26 | 0.26 | 94 | 1006.3 |
| 20260506232517 | 62 | 203 | 4.0 | 10.0 | 0.00 | 0.26 | 0.26 | 94 | 1006.2 |
| 20260506232017 | 62 | 203 | 3.0 | 8.0 | 0.00 | 0.26 | 0.26 | 94 | 1006.2 |
| 20260506231517 | 62 | 203 | 3.0 | 8.0 | 0.00 | 0.26 | 0.26 | 94 | 1006.2 |
| 20260506231017 | 62 | 203 | 3.0 | 9.0 | 0.00 | 0.26 | 0.26 | 94 | 1006.1 |
| 20260506230517 | 62 | 180 | 2.0 | 7.0 | 0.00 | 0.26 | 0.26 | 94 | 1006.0 |
| 20260506230017 | 62 | 180 | 3.0 | 8.0 | 0.00 | 0.26 | 0.26 | 94 | 1006.1 |
| 20260506225517 | 62 | 203 | 3.0 | 8.0 | 0.00 | 0.26 | 0.26 | 94 | 1006.1 |
| 20260506225017 | 62 | 180 | 2.0 | 10.0 | 0.00 | 0.26 | 0.26 | 94 | 1006.1 |
| 20260506224517 | 62 | 203 | 4.0 | 11.0 | 0.00 | 0.26 | 0.26 | 94 | 1006.1 |
| 20260506224017 | 62 | 203 | 2.0 | 8.0 | 0.00 | 0.26 | 0.26 | 94 | 1006.1 |
| 20260506223517 | 62 | 203 | 4.0 | 11.0 | 0.00 | 0.26 | 0.26 | 94 | 1006.0 |
| 20260506223017 | 62 | 203 | 3.0 | 8.0 | 0.00 | 0.26 | 0.26 | 94 | 1006.0 |
| 20260506222516 | 62 | 203 | 3.0 | 8.0 | 0.00 | 0.26 | 0.26 | 94 | 1005.9 |
| 20260506222017 | 62 | 203 | 3.0 | 8.0 | 0.00 | 0.26 | 0.26 | 93 | 1005.8 |
| 20260506221516 | 62 | 203 | 5.0 | 14.0 | 0.00 | 0.26 | 0.26 | 94 | 1005.8 |
| 20260506221017 | 62 | 203 | 4.0 | 10.0 | 0.00 | 0.26 | 0.26 | 94 | 1005.7 |
| 20260506220517 | 62 | 225 | 5.0 | 13.0 | 0.00 | 0.26 | 0.26 | 94 | 1005.7 |
| 20260506220017 | 62 | 180 | 4.0 | 10.0 | 0.00 | 0.26 | 0.26 | 94 | 1005.6 |
| 20260506215516 | 62 | 225 | 4.0 | 10.0 | 0.00 | 0.26 | 0.26 | 94 | 1005.7 |
| 20260506215016 | 62 | 180 | 3.0 | 9.0 | 0.00 | 0.26 | 0.26 | 94 | 1005.7 |
| 20260506214516 | 62 | 203 | 3.0 | 9.0 | 0.00 | 0.26 | 0.26 | 94 | 1005.6 |
| 20260506214030 | 62 | 203 | 3.0 | 10.0 | 0.00 | 0.26 | 0.26 | 94 | 1005.6 |
| 20260506213516 | 62 | 180 | 2.0 | 5.0 | 0.00 | 0.26 | 0.26 | 94 | 1005.7 |
| 20260506213016 | 63 | 203 | 3.0 | 13.0 | 0.00 | 0.26 | 0.26 | 94 | 1005.6 |
| 20260506212516 | 63 | 203 | 4.0 | 9.0 | 0.00 | 0.26 | 0.26 | 94 | 1005.5 |
| 20260506212016 | 63 | 225 | 2.0 | 7.0 | 0.01 | 0.26 | 0.26 | 94 | 1005.5 |
| 20260506211516 | 63 | 203 | 3.0 | 8.0 | 0.01 | 0.26 | 0.26 | 94 | 1005.4 |
| 20260506211017 | 63 | 203 | 4.0 | 9.0 | 0.01 | 0.26 | 0.26 | 95 | 1005.4 |
| 20260506210516 | 63 | 225 | 2.0 | 5.0 | 0.02 | 0.26 | 0.26 | 95 | 1005.4 |
| 20260506210016 | 63 | 203 | 2.0 | 7.0 | 0.02 | 0.26 | 0.26 | 95 | 1005.4 |
| 20260506205516 | 63 | 203 | 3.0 | 8.0 | 0.03 | 0.26 | 0.26 | 95 | 1005.5 |
| 20260506205016 | 63 | 180 | 3.0 | 10.0 | 0.03 | 0.26 | 0.26 | 95 | 1005.5 |
| 20260506204516 | 63 | 180 | 3.0 | 8.0 | 0.03 | 0.26 | 0.26 | 95 | 1005.5 |
| 20260506204016 | 62 | 180 | 3.0 | 9.0 | 0.03 | 0.26 | 0.26 | 95 | 1005.4 |
| 20260506203516 | 62 | 203 | 2.0 | 7.0 | 0.03 | 0.26 | 0.26 | 95 | 1005.4 |
| 20260506203016 | 62 | 203 | 3.0 | 7.0 | 0.03 | 0.26 | 0.26 | 95 | 1005.4 |
| 20260506202516 | 62 | 203 | 3.0 | 7.0 | 0.04 | 0.26 | 0.26 | 95 | 1005.3 |
| 20260506202016 | 62 | 180 | 3.0 | 11.0 | 0.03 | 0.25 | 0.25 | 95 | 1005.3 |
| 20260506201516 | 62 | 203 | 4.0 | 9.0 | 0.03 | 0.25 | 0.25 | 95 | 1005.3 |
| 20260506201016 | 62 | 225 | 3.0 | 9.0 | 0.03 | 0.25 | 0.25 | 95 | 1005.5 |
| 20260506200516 | 62 | 180 | 2.0 | 7.0 | 0.02 | 0.24 | 0.24 | 95 | 1005.6 |
| 20260506200016 | 62 | 225 | 4.0 | 11.0 | 0.03 | 0.24 | 0.24 | 95 | 1005.7 |
| 20260506195516 | 62 | 225 | 4.0 | 11.0 | 0.02 | 0.23 | 0.23 | 95 | 1005.8 |
| 20260506195016 | 62 | 225 | 4.0 | 9.0 | 0.02 | 0.23 | 0.23 | 95 | 1005.8 |
| 20260506194516 | 62 | 203 | 2.0 | 8.0 | 0.03 | 0.23 | 0.23 | 95 | 1006.0 |
| 20260506194016 | 62 | 203 | 4.0 | 10.0 | 0.03 | 0.23 | 0.23 | 95 | 1006.0 |
| 20260506193516 | 62 | 135 | 1.0 | 11.0 | 0.04 | 0.23 | 0.23 | 96 | 1005.9 |
| 20260506193016 | 62 | 203 | 4.0 | 10.0 | 0.05 | 0.23 | 0.23 | 95 | 1006.1 |
| 20260506192516 | 62 | 203 | 3.0 | 10.0 | 0.05 | 0.22 | 0.22 | 96 | 1006.1 |
| 20260506192016 | 62 | 158 | 3.0 | 8.0 | 0.06 | 0.22 | 0.22 | 96 | 1006.2 |
| 20260506191516 | 62 | 203 | 4.0 | 9.0 | 0.07 | 0.22 | 0.22 | 96 | 1006.2 |
| 20260506191016 | 62 | 203 | 5.0 | 10.0 | 0.07 | 0.22 | 0.22 | 96 | 1006.3 |
| 20260506190516 | 62 | 135 | 2.0 | 9.0 | 0.07 | 0.22 | 0.22 | 96 | 1006.3 |
| 20260506190016 | 62 | 203 | 2.0 | 5.0 | 0.06 | 0.21 | 0.21 | 96 | 1006.3 |
| 20260506185516 | 62 | 180 | 2.0 | 8.0 | 0.06 | 0.21 | 0.21 | 95 | 1006.4 |
| 20260506185016 | 62 | 203 | 3.0 | 7.0 | 0.06 | 0.21 | 0.21 | 95 | 1006.5 |
| 20260506184517 | 62 | 180 | 3.0 | 8.0 | 0.06 | 0.20 | 0.20 | 95 | 1006.5 |
| 20260506184016 | 61 | 203 | 3.0 | 8.0 | 0.06 | 0.20 | 0.20 | 95 | 1006.5 |
| 20260506183516 | 62 | 203 | 4.0 | 9.0 | 0.06 | 0.19 | 0.19 | 95 | 1006.5 |
| 20260506183016 | 61 | 180 | 3.0 | 8.0 | 0.06 | 0.18 | 0.18 | 94 | 1006.6 |
| 20260506182516 | 61 | 180 | 3.0 | 7.0 | 0.08 | 0.17 | 0.17 | 94 | 1006.7 |
| 20260506182016 | 61 | 180 | 4.0 | 9.0 | 0.09 | 0.16 | 0.16 | 94 | 1006.6 |
| 20260506181516 | 61 | 203 | 2.0 | 9.0 | 0.09 | 0.15 | 0.15 | 94 | 1006.7 |
| 20260506181016 | 62 | 135 | 2.0 | 9.0 | 0.09 | 0.15 | 0.15 | 94 | 1006.7 |
| 20260506180516 | 62 | 158 | 5.0 | 15.0 | 0.09 | 0.15 | 0.15 | 93 | 1006.8 |
| 20260506180016 | 62 | 203 | 5.0 | 13.0 | 0.09 | 0.15 | 0.15 | 93 | 1006.7 |
| 20260506175516 | 62 | 180 | 4.0 | 12.0 | 0.09 | 0.15 | 0.15 | 93 | 1006.7 |
| 20260506175016 | 62 | 180 | 4.0 | 14.0 | 0.10 | 0.15 | 0.15 | 94 | 1006.7 |
| 20260506174516 | 62 | 158 | 4.0 | 10.0 | 0.09 | 0.14 | 0.14 | 94 | 1006.7 |
| 20260506174016 | 62 | 203 | 1.0 | 6.0 | 0.09 | 0.14 | 0.14 | 94 | 1006.8 |
| 20260506173516 | 62 | 225 | 2.0 | 6.0 | 0.09 | 0.13 | 0.13 | 93 | 1006.8 |
| 20260506173016 | 62 | 180 | 2.0 | 7.0 | 0.08 | 0.12 | 0.12 | 93 | 1006.8 |
| 20260506172516 | 62 | 180 | 2.0 | 9.0 | 0.06 | 0.09 | 0.09 | 93 | 1006.8 |
| 20260506172016 | 62 | 180 | 2.0 | 7.0 | 0.05 | 0.07 | 0.07 | 93 | 1006.8 |
| 20260506171516 | 63 | 135 | 1.0 | 6.0 | 0.04 | 0.06 | 0.06 | 93 | 1006.8 |
| 20260506171017 | 63 | 0.0 | 2.0 | 0.04 | 0.06 | 0.06 | 93 | 1006.7 | |
| 20260506170516 | 63 | 0.0 | 3.0 | 0.04 | 0.06 | 0.06 | 93 | 1006.8 | |
| 20260506170016 | 63 | 0.0 | 4.0 | 0.04 | 0.06 | 0.06 | 93 | 1006.8 | |
| 20260506165516 | 63 | 158 | 1.0 | 5.0 | 0.05 | 0.06 | 0.06 | 93 | 1006.8 |
| 20260506165016 | 63 | 135 | 1.0 | 3.0 | 0.04 | 0.05 | 0.05 | 93 | 1006.8 |
| 20260506164516 | 63 | 135 | 1.0 | 6.0 | 0.05 | 0.05 | 0.05 | 93 | 1006.9 |
| 20260506164016 | 63 | 0.0 | 2.0 | 0.05 | 0.05 | 0.05 | 93 | 1006.9 | |
| 20260506163516 | 63 | 0.0 | 2.0 | 0.04 | 0.04 | 0.04 | 92 | 1007.0 | |
| 20260506163016 | 63 | 0.0 | 2.0 | 0.04 | 0.04 | 0.04 | 92 | 1007.1 | |
| 20260506162516 | 63 | 158 | 1.0 | 4.0 | 0.03 | 0.03 | 0.03 | 91 | 1007.5 |
| 20260506162016 | 63 | 158 | 1.0 | 3.0 | 0.02 | 0.02 | 0.02 | 91 | 1007.7 |
| 20260506161516 | 63 | 0.0 | 2.0 | 0.02 | 0.02 | 0.02 | 90 | 1007.7 | |
| 20260506161016 | 63 | 180 | 1.0 | 4.0 | 0.02 | 0.02 | 0.02 | 90 | 1007.8 |
| 20260506160516 | 64 | 0.0 | 1.0 | 0.02 | 0.02 | 0.02 | 89 | 1007.7 | |
| 20260506160016 | 64 | 0.0 | 3.0 | 0.02 | 0.02 | 0.02 | 89 | 1007.8 | |
| 20260506155516 | 64 | 0.0 | 3.0 | 0.01 | 0.01 | 0.01 | 88 | 1007.8 | |
| 20260506155016 | 64 | 203 | 1.0 | 5.0 | 0.01 | 0.01 | 0.01 | 87 | 1007.8 |
| 20260506154516 | 64 | 158 | 1.0 | 5.0 | 0.00 | 0.00 | 0.00 | 86 | 1007.8 |
| 20260506154016 | 65 | 158 | 2.0 | 7.0 | 0.00 | 0.00 | 0.00 | 86 | 1007.9 |
| 20260506153516 | 65 | 180 | 1.0 | 5.0 | 0.00 | 0.00 | 0.00 | 85 | 1007.8 |
| 20260506153016 | 65 | 180 | 1.0 | 4.0 | 0.00 | 0.00 | 0.00 | 84 | 1007.8 |
| 20260506152516 | 66 | 0.0 | 4.0 | 0.00 | 0.00 | 0.00 | 84 | 1007.8 | |
| 20260506152016 | 66 | 180 | 1.0 | 5.0 | 0.00 | 0.00 | 0.00 | 82 | 1008.0 |
| 20260506151516 | 66 | 180 | 2.0 | 6.0 | 0.00 | 0.00 | 0.00 | 81 | 1008.1 |
| 20260506151016 | 66 | 158 | 1.0 | 5.0 | 0.00 | 0.00 | 0.00 | 80 | 1008.1 |
| 20260506150516 | 66 | 180 | 3.0 | 10.0 | 0.00 | 0.00 | 0.00 | 79 | 1008.1 |
| 20260506150016 | 66 | 180 | 3.0 | 7.0 | 0.00 | 0.00 | 0.00 | 78 | 1008.3 |
| 20260506145516 | 67 | 180 | 1.0 | 7.0 | 0.00 | 0.00 | 0.00 | 78 | 1008.1 |
| 20260506145016 | 67 | 180 | 3.0 | 10.0 | 0.00 | 0.00 | 0.00 | 77 | 1008.1 |
| 20260506144516 | 67 | 180 | 2.0 | 5.0 | 0.00 | 0.00 | 0.00 | 77 | 1008.1 |
| 20260506144016 | 67 | 180 | 3.0 | 10.0 | 0.00 | 0.00 | 0.00 | 76 | 1008.1 |
| 20260506143516 | 67 | 203 | 3.0 | 8.0 | 0.00 | 0.00 | 0.00 | 75 | 1008.1 |
| 20260506143016 | 67 | 180 | 2.0 | 6.0 | 0.00 | 0.00 | 0.00 | 76 | 1008.1 |
| 20260506142516 | 67 | 180 | 3.0 | 10.0 | 0.00 | 0.00 | 0.00 | 75 | 1008.1 |
| 20260506142016 | 67 | 180 | 4.0 | 14.0 | 0.00 | 0.00 | 0.00 | 75 | 1008.2 |
| 20260506141516 | 67 | 203 | 3.0 | 8.0 | 0.00 | 0.00 | 0.00 | 75 | 1008.2 |
| 20260506141016 | 67 | 203 | 5.0 | 14.0 | 0.00 | 0.00 | 0.00 | 75 | 1008.3 |
| 20260506140516 | 67 | 180 | 3.0 | 10.0 | 0.00 | 0.00 | 0.00 | 76 | 1008.4 |
| 20260506140016 | 67 | 203 | 4.0 | 10.0 | 0.00 | 0.00 | 0.00 | 75 | 1008.4 |
| 20260506135516 | 67 | 180 | 4.0 | 10.0 | 0.00 | 0.00 | 0.00 | 76 | 1008.4 |
| 20260506135015 | 67 | 180 | 5.0 | 13.0 | 0.00 | 0.00 | 0.00 | 76 | 1008.4 |
| 20260506134515 | 67 | 203 | 4.0 | 13.0 | 0.00 | 0.00 | 0.00 | 76 | 1008.3 |
| 20260506134017 | 67 | 203 | 5.0 | 11.0 | 0.00 | 0.00 | 0.00 | 76 | 1008.2 |
| 20260506133516 | 67 | 203 | 2.0 | 7.0 | 0.00 | 0.00 | 0.00 | 76 | 1008.1 |
| 20260506133016 | 67 | 203 | 5.0 | 13.0 | 0.00 | 0.00 | 0.00 | 76 | 1008.0 |
| 20260506132516 | 67 | 203 | 5.0 | 16.0 | 0.00 | 0.00 | 0.00 | 76 | 1008.2 |
| 20260506132016 | 67 | 180 | 3.0 | 9.0 | 0.00 | 0.00 | 0.00 | 76 | 1008.1 |
| 20260506131515 | 67 | 225 | 4.0 | 15.0 | 0.00 | 0.00 | 0.00 | 76 | 1007.9 |
| 20260506131015 | 67 | 203 | 3.0 | 11.0 | 0.00 | 0.00 | 0.00 | 76 | 1007.9 |
| 20260506130515 | 66 | 203 | 5.0 | 10.0 | 0.00 | 0.00 | 0.00 | 76 | 1007.8 |
| 20260506130016 | 66 | 203 | 5.0 | 12.0 | 0.00 | 0.00 | 0.00 | 76 | 1007.8 |
| 20260506125515 | 66 | 203 | 4.0 | 10.0 | 0.00 | 0.00 | 0.00 | 77 | 1007.9 |
| 20260506125015 | 66 | 180 | 4.0 | 9.0 | 0.00 | 0.00 | 0.00 | 77 | 1007.8 |
| 20260506124515 | 66 | 203 | 4.0 | 13.0 | 0.00 | 0.00 | 0.00 | 77 | 1007.8 |
| 20260506124015 | 66 | 180 | 4.0 | 12.0 | 0.00 | 0.00 | 0.00 | 77 | 1007.8 |
| 20260506123515 | 66 | 180 | 3.0 | 8.0 | 0.00 | 0.00 | 0.00 | 77 | 1008.1 |
| 20260506123015 | 66 | 158 | 3.0 | 13.0 | 0.00 | 0.00 | 0.00 | 78 | 1008.2 |
| 20260506122515 | 66 | 180 | 3.0 | 7.0 | 0.00 | 0.00 | 0.00 | 78 | 1008.1 |
| 20260506122015 | 66 | 180 | 3.0 | 6.0 | 0.00 | 0.00 | 0.00 | 78 | 1008.1 |
| 20260506121515 | 66 | 158 | 3.0 | 12.0 | 0.00 | 0.00 | 0.00 | 78 | 1008.1 |
| 20260506121015 | 66 | 180 | 4.0 | 10.0 | 0.00 | 0.00 | 0.00 | 78 | 1008.0 |
| 20260506120515 | 66 | 203 | 5.0 | 12.0 | 0.00 | 0.00 | 0.00 | 78 | 1008.0 |
| 20260506120015 | 66 | 180 | 3.0 | 10.0 | 0.00 | 0.00 | 0.00 | 78 | 1008.1 |
| 20260506115515 | 65 | 180 | 3.0 | 9.0 | 0.00 | 0.00 | 0.00 | 78 | 1008.2 |
| 20260506115015 | 65 | 180 | 3.0 | 8.0 | 0.00 | 0.00 | 0.00 | 78 | 1008.3 |
| 20260506114515 | 65 | 180 | 4.0 | 12.0 | 0.00 | 0.00 | 0.00 | 78 | 1008.2 |
| 20260506114016 | 65 | 180 | 3.0 | 10.0 | 0.00 | 0.00 | 0.00 | 78 | 1008.2 |
| 20260506113515 | 65 | 180 | 4.0 | 9.0 | 0.00 | 0.00 | 0.00 | 79 | 1008.0 |
| 20260506113015 | 65 | 203 | 2.0 | 8.0 | 0.00 | 0.00 | 0.00 | 79 | 1007.9 |
| 20260506112515 | 65 | 180 | 2.0 | 8.0 | 0.00 | 0.00 | 0.00 | 79 | 1008.0 |
| 20260506112015 | 65 | 180 | 2.0 | 7.0 | 0.00 | 0.00 | 0.00 | 79 | 1008.0 |
| 20260506111515 | 65 | 203 | 3.0 | 10.0 | 0.00 | 0.00 | 0.00 | 79 | 1008.0 |
| 20260506111015 | 65 | 180 | 3.0 | 7.0 | 0.00 | 0.00 | 0.00 | 79 | 1008.0 |
| 20260506110516 | 65 | 180 | 3.0 | 9.0 | 0.00 | 0.00 | 0.00 | 79 | 1007.9 |
| 20260506110015 | 65 | 203 | 3.0 | 9.0 | 0.00 | 0.00 | 0.00 | 79 | 1008.0 |
| 20260506105515 | 65 | 180 | 3.0 | 10.0 | 0.00 | 0.00 | 0.00 | 79 | 1008.0 |
| 20260506105015 | 65 | 158 | 4.0 | 10.0 | 0.00 | 0.00 | 0.00 | 79 | 1008.0 |
| 20260506104515 | 65 | 180 | 3.0 | 9.0 | 0.00 | 0.00 | 0.00 | 79 | 1008.0 |
| 20260506104015 | 65 | 203 | 3.0 | 9.0 | 0.00 | 0.00 | 0.00 | 79 | 1008.0 |
| 20260506103515 | 65 | 158 | 3.0 | 9.0 | 0.00 | 0.00 | 0.00 | 79 | 1007.9 |
| 20260506103015 | 65 | 180 | 3.0 | 11.0 | 0.00 | 0.00 | 0.00 | 79 | 1007.9 |
| 20260506102515 | 65 | 180 | 4.0 | 17.0 | 0.00 | 0.00 | 0.00 | 78 | 1007.9 |
| 20260506102015 | 65 | 180 | 2.0 | 5.0 | 0.00 | 0.00 | 0.00 | 78 | 1007.9 |
| 20260506101515 | 65 | 180 | 2.0 | 6.0 | 0.00 | 0.00 | 0.00 | 78 | 1007.8 |
| 20260506101015 | 65 | 203 | 3.0 | 9.0 | 0.00 | 0.00 | 0.00 | 78 | 1007.9 |
| 20260506100515 | 65 | 158 | 2.0 | 6.0 | 0.00 | 0.00 | 0.00 | 78 | 1007.7 |
| 20260506100015 | 65 | 180 | 3.0 | 7.0 | 0.00 | 0.00 | 0.00 | 78 | 1007.7 |
| 20260506095515 | 65 | 180 | 5.0 | 12.0 | 0.00 | 0.00 | 0.00 | 78 | 1007.8 |
| 20260506095015 | 64 | 203 | 3.0 | 8.0 | 0.00 | 0.00 | 0.00 | 77 | 1007.6 |
| 20260506094515 | 65 | 180 | 2.0 | 5.0 | 0.00 | 0.00 | 0.00 | 77 | 1007.6 |
| 20260506094015 | 65 | 158 | 3.0 | 6.0 | 0.00 | 0.00 | 0.00 | 77 | 1007.9 |
| 20260506093515 | 65 | 203 | 4.0 | 10.0 | 0.00 | 0.00 | 0.00 | 76 | 1008.0 |
| 20260506093015 | 65 | 180 | 3.0 | 7.0 | 0.00 | 0.00 | 0.00 | 76 | 1008.1 |
| 20260506092515 | 65 | 180 | 3.0 | 8.0 | 0.00 | 0.00 | 0.00 | 76 | 1008.0 |
| 20260506092015 | 65 | 180 | 3.0 | 8.0 | 0.00 | 0.00 | 0.00 | 75 | 1008.0 |
| 20260506091515 | 65 | 180 | 2.0 | 8.0 | 0.00 | 0.00 | 0.00 | 75 | 1007.9 |
| 20260506091015 | 65 | 180 | 3.0 | 11.0 | 0.00 | 0.00 | 0.00 | 74 | 1007.8 |
| 20260506090515 | 65 | 158 | 2.0 | 8.0 | 0.00 | 0.00 | 0.00 | 74 | 1007.8 |
| 20260506090015 | 65 | 180 | 2.0 | 9.0 | 0.00 | 0.00 | 0.00 | 74 | 1007.8 |
| 20260506085515 | 65 | 180 | 2.0 | 7.0 | 0.00 | 0.00 | 0.00 | 73 | 1007.9 |
| 20260506085015 | 65 | 180 | 3.0 | 11.0 | 0.00 | 0.00 | 0.00 | 73 | 1007.9 |
| 20260506084515 | 65 | 180 | 3.0 | 7.0 | 0.00 | 0.00 | 0.00 | 73 | 1008.0 |
| 20260506084015 | 65 | 180 | 2.0 | 6.0 | 0.00 | 0.00 | 0.00 | 72 | 1007.9 |
| 20260506083515 | 65 | 180 | 3.0 | 12.0 | 0.00 | 0.00 | 0.00 | 72 | 1008.0 |
| 20260506083015 | 65 | 180 | 2.0 | 6.0 | 0.00 | 0.00 | 0.00 | 71 | 1008.1 |
| 20260506082515 | 65 | 180 | 2.0 | 7.0 | 0.00 | 0.00 | 0.00 | 71 | 1008.0 |
| 20260506082015 | 66 | 180 | 2.0 | 6.0 | 0.00 | 0.00 | 0.00 | 70 | 1008.1 |
| 20260506081515 | 66 | 180 | 1.0 | 5.0 | 0.00 | 0.00 | 0.00 | 69 | 1008.1 |
| 20260506081015 | 66 | 180 | 2.0 | 6.0 | 0.00 | 0.00 | 0.00 | 69 | 1008.2 |
| 20260506080515 | 67 | 158 | 1.0 | 7.0 | 0.00 | 0.00 | 0.00 | 68 | 1008.2 |
| 20260506073515 | 68 | 135 | 2.0 | 7.0 | 0.00 | 0.00 | 0.00 | 65 | 1008.3 |
| 20260506073015 | 68 | 180 | 3.0 | 7.0 | 0.00 | 0.00 | 0.00 | 65 | 1008.3 |
| 20260506072515 | 68 | 180 | 3.0 | 8.0 | 0.00 | 0.00 | 0.00 | 65 | 1008.2 |
| 20260506072015 | 68 | 203 | 4.0 | 12.0 | 0.00 | 0.00 | 0.00 | 65 | 1008.2 |
| 20260506071515 | 68 | 225 | 2.0 | 8.0 | 0.00 | 0.00 | 0.00 | 65 | 1008.2 |
| 20260506071015 | 68 | 203 | 4.0 | 9.0 | 0.00 | 0.00 | 0.00 | 64 | 1008.2 |
| 20260506070515 | 68 | 203 | 2.0 | 7.0 | 0.00 | 0.00 | 0.00 | 64 | 1008.3 |
| 20260506062517 | 68 | 158 | 2.0 | 10.0 | 0.00 | 0.00 | 0.00 | 64 | 1008.6 |
| 20260506062017 | 68 | 180 | 2.0 | 7.0 | 0.00 | 0.00 | 0.00 | 64 | 1008.7 |
| 20260506061517 | 68 | 203 | 2.0 | 7.0 | 0.00 | 0.00 | 0.00 | 64 | 1008.7 |
| 20260506061017 | 68 | 270 | 1.0 | 7.0 | 0.00 | 0.00 | 0.00 | 63 | 1008.6 |
| 20260506060517 | 68 | 180 | 2.0 | 6.0 | 0.00 | 0.00 | 0.00 | 63 | 1008.6 |